Location: Capel Vale
(41.4569°N, 81.9294°W)
Time: 14:01:45
(UTC+00:00)

Daily predictions for brighter satellites

Satellite Brightness Start Highest point End
(mag) Time Altitude Azimuth Time Altitude Azimuth Time Altitude Azimuth
Alouette 2 Rocket 3.1 12:01:31 10° NNW 12:05:17 87° WSW 12:08:52 10° S
Cosmos 2297 Rocket 4.0 12:01:06 10° N 12:05:51 26° NE 12:10:34 10° ESE
BREEZE M DEB (TANK) 3.7 12:03:54 10° NW 12:06:17 20° N 12:07:59 10° ENE
Cosmos 2228 Rocket 3.4 12:02:21 10° N 12:06:51 77° E 12:11:22 10° SSE
Cosmos 2369 Rocket 3.5 12:05:05 10° W 12:08:46 18° NW 12:12:29 10° N
Cosmos 1408 Rocket 4.4 12:05:24 10° SW 12:09:07 28° WNW 12:12:51 10° NNW
FengYun 1-2 T 4.3 12:07:01 10° N 12:12:25 59° WNW 12:17:46 10° SSW
Cosmos 2082 Rocket 3.3 22:19:29 10° SSE 22:24:01 25° ESE 22:28:32 10° NE
Cosmos 1743 Rocket 3.9 22:20:41 10° N 22:24:49 42° ENE 22:28:55 10° SSE
Cosmos 990 Rocket 4.1 22:19:58 10° N 22:25:05 54° ENE 22:30:07 10° SE
ISS -1.9 22:23:52 10° NNW 22:26:13 17° NNE 22:28:34 10° NE
USA 267 3.6 22:21:54 10° NE 22:28:23 67° NW 22:34:51 10° WSW
CORIOLIS 4.5 22:25:19 10° SE 22:30:25 45° ENE 22:35:34 10° N
Cosmos 1340 Rocket 2.8 22:30:10 10° N 22:34:14 71° E 22:38:18 10° SSE
Cosmos 1606 4.2 22:31:18 10° SSW 22:34:49 38° WNW 22:38:23 10° N
CZ-2D R/B 4.3 22:33:10 10° SE 22:36:21 25° ENE 22:39:31 10° NNE
NOAA 12 4.2 22:33:33 10° SSE 22:38:53 90° ENE 22:44:14 10° NNW
Cosmos 2026 Rocket 4.3 22:33:31 10° N 22:39:19 42° ENE 22:45:00 10° SSE
SJ 16-02 3.7 22:36:34 10° NW 22:40:19 28° W 22:44:03 10° SSW
Lacrosse 5 rocket 3.5 22:40:48 10° N 22:41:30 10° NNE 22:42:12 10° NNE
COSMOS 2406 3.3 22:36:26 10° S 22:42:05 61° ESE 22:47:44 10° NNE
USA 229 DEB 4.0 22:36:02 10° NNW 22:43:23 66° NE 22:51:10 10° SE
USA 229 4.0 22:36:08 10° NNW 22:43:29 65° NE 22:51:15 10° SE
COSMOS 2455 3.1 22:41:20 10° S 22:47:06 50° ESE 22:52:55 10° NE
ARGOS 4.1 22:43:08 10° ESE 22:47:24 24° ENE 22:51:39 10° NNE
Cosmos 1833 Rocket 2.7 22:41:52 10° SSW 22:47:29 87° ESE 22:53:09 10° NNE
CZ-4B R/B 3.6 22:45:38 10° S 22:49:42 59° W 22:53:34 10° NNW
Cosmos 1500 3.9 22:46:37 10° NNE 22:49:56 29° ENE 22:53:12 10° SE
ATLAS CENTAUR R/B 3.4 22:38:23 10° SW 22:50:17 77° NW 22:54:53 10° NE
Cosmos 1500 Rocket 3.7 22:49:12 10° N 22:53:39 84° W 22:58:02 10° S
Radarsat 4.5 22:49:40 10° SSE 22:54:50 73° ENE 23:00:02 10° N
Cosmos 1933 3.3 22:54:07 10° S 22:58:10 87° E 23:02:14 10° N
PAYLOAD B 4.3 22:53:51 10° SSE 22:59:18 55° ENE 23:04:45 10° N
USA 234 3.2 22:53:53 10° ESE 23:00:24 73° NE 23:06:55 10° NW
SMAP 3.1 22:56:06 10° SSE 23:00:45 84° WSW 23:05:25 10° NNW
Cosmos 540 Rocket 3.4 22:56:29 10° SSW 23:01:34 80° ESE 23:06:42 10° NNE
PSLV R/B 3.6 22:58:46 10° SSE 23:02:22 58° ENE 23:06:02 10° N
Sich 1 3.0 23:00:59 10° N 23:05:14 57° E 23:09:28 10° SSE
Cosmos 1805 Rocket 3.4 23:00:55 10° N 23:05:16 76° E 23:09:36 10° SSE
CZ-4B R/B 3.5 23:00:15 10° SE 23:05:19 42° ENE 23:10:20 10° N
Cosmos 1809 Rocket 4.4 22:59:58 10° N 23:06:05 75° E 23:12:08 10° SSE
Cosmos 1814 Rocket 4.5 23:01:49 10° S 23:06:40 40° ESE 23:10:55 13° NE
NOSS 3-1 (A) 4.2 22:59:18 10° NW 23:07:03 88° WSW 23:16:00 10° SSE
GPS 2-04 Rocket1 3.9 23:05:54 10° WSW 23:09:42 36° S 23:12:58 13° ESE
CZ-2C R/B 2.9 23:05:48 10° NNE 23:10:46 44° E 23:15:40 10° S
Cosmos 2360 4.2 23:05:31 10° NNW 23:11:17 81° ENE 23:17:00 10° SSE
Meteor 1-26 Rocket 4.3 23:10:49 10° S 23:16:46 84° E 23:22:51 10° N
deb Chang Zheng 4 3.8 23:13:28 10° SE 23:17:33 44° ENE 23:21:39 10° N
Cosmos 1898 Rocket 3.8 23:12:30 10° NNW 23:17:44 70° WSW 23:22:53 10° S
Cosmos 2084 4.1 23:14:56 10° NW 23:19:13 60° WSW 23:23:40 10° SSE
Cosmos 1666 3.1 23:16:08 10° N 23:19:34 35° ENE 23:23:00 10° SE
MOS 1-B 4.3 23:16:39 10° SSE 23:22:24 79° ENE 23:28:12 10° NNW
CZ-4C R/B 3.2 23:21:11 10° NNW 23:28:13 49° NE 23:36:19 10° ESE
Cosmos 2208 Rocket 4.3 23:27:23 10° S 23:32:32 48° ESE 23:35:28 24° NE
Cosmos 1812 2.6 23:29:55 10° S 23:33:45 84° E 23:36:51 15° N
H-2A R/B 2.1 23:29:58 10° S 23:35:12 81° WSW 23:40:18 10° NNW
SJ-11-01 4.2 23:31:14 10° SSE 23:35:54 61° ENE 23:40:36 10° N
COSMO-SKYMED 1 2.4 23:34:00 12° NNE 23:38:05 83° E 23:42:26 10° S
USA 276 3.6 23:36:42 10° WNW 23:39:34 34° SW 23:41:30 17° SSE
Cosmos 921 Rocket 3.5 23:44:11 10° S 23:47:25 38° SE 23:47:25 38° SE
Cosmos 1633 Rocket 2.9 23:44:38 10° N 23:49:02 78° E 23:53:25 10° S
Meteor 1-14 Rocket 4.3 23:43:24 10° N 23:49:15 89° ENE 23:55:12 10° S
Cosmos 2322 Rocket 3.8 23:45:15 10° N 23:47:27 18° NNE 23:47:27 18° NNE
Cosmos 1697 Rocket 3.9 23:47:00 10° NW 23:52:15 42° WSW 23:57:29 10° S
Cosmos 841 Rocket 4.4 23:47:52 10° SW 23:52:50 46° WNW 23:57:42 10° N
